NW Arkansas Airport, AR

8:35 PM CDT on June 25, 2017 (GMT -0500)
Northwest Arkansas Regional

Weather History for KXNA - July, 2013

Change the Weather History Date:

Monday, July 29, 2013

  Actual Average (KVBT) Record (KVBT)
Temperature  
Mean Temperature 76 °F -  
Max Temperature 87 °F 89 °F 105 °F (2012)
Min Temperature 66 °F 66 °F 56 °F (1965)
Cooling Degree Days 11    
Growing Degree Days 26 (Base 50)    
Moisture  
Dew Point 69 °F    
Average Humidity 75    
Maximum Humidity 93    
Minimum Humidity 59    
Precipitation  
Precipitation 0.01 in - - ()
Sea Level Pressure  
Sea Level Pressure 30.02 in    
Wind  
Wind Speed 9 mph (SSE)    
Max Wind Speed 18 mph    
Max Gust Speed 23 mph    
Visibility 10 miles    
Events      
Averages and records for this station are not official NWS values.
T = Trace of Precipitation, MM = Missing Value Source: NWS Daily Summary

Daily Weather History Graph

Daily Weather History Graph

Search for Another Location

Airport or City:

Trip Planner

Search our weather history database for the weather conditions in past years. The results will help you decide how hot, cold, wet, or windy it might be!

Date:

Astronomy

Jul. 29, 2013 Rise Set
Actual Time 6:21 AM CDT 8:25 PM CDT
Civil Twilight 5:53 AM CDT 8:53 PM CDT
Nautical Twilight 5:18 AM CDT 9:28 PM CDT
Astronomical Twilight 4:40 AM CDT 10:05 PM CDT
Moon 12:02 AM CDT (7/29) 1:49 PM CDT (7/29)
Length of Visible Light 15h 00m
Length of Day
14h 03m
Waning Gibbous, 50% of the Moon is Illuminated
Jul 29
Waning Gibbous
Jul 29
Last Quarter
Aug 6
New
Aug 14
First Quarter
Aug 20
Full

Hourly Weather History & Observations

Time (CDT) Temp. Heat Index Dew Point Humidity Pressure Visibility Wind Dir Wind Speed Gust Speed Precip Events Conditions
12:53 AM 68.0 °F - 64.0 °F 87% 30.02 in 10.0 mi ENE 3.5 mph - N/A   Clear
1:53 AM 68.0 °F - 64.0 °F 87% 30.02 in 10.0 mi East 5.8 mph - N/A   Clear
2:53 AM 68.0 °F - 64.0 °F 87% 30.02 in 10.0 mi ESE 4.6 mph - N/A   Clear
3:53 AM 66.9 °F - 64.0 °F 90% 30.02 in 10.0 mi ESE 4.6 mph - N/A   Clear
4:53 AM 66.9 °F - 64.0 °F 90% 30.03 in 10.0 mi ESE 3.5 mph - N/A   Clear
5:53 AM 66.9 °F - 64.9 °F 93% 30.04 in 10.0 mi East 4.6 mph - N/A   Clear
6:53 AM 68.0 °F - 66.0 °F 93% 30.04 in 10.0 mi ESE 5.8 mph - N/A   Clear
7:53 AM 71.1 °F - 66.9 °F 87% 30.05 in 10.0 mi SE 8.1 mph - N/A   Mostly Cloudy
8:53 AM 75.0 °F - 69.1 °F 82% 30.05 in 10.0 mi SSE 11.5 mph - N/A   Clear
9:53 AM 77.0 °F - 68.0 °F 74% 30.04 in 10.0 mi South 17.3 mph - N/A   Clear
10:53 AM 81.0 °F 84.1 °F 69.1 °F 67% 30.04 in 10.0 mi South 13.8 mph - N/A   Mostly Cloudy
11:20 AM 82.4 °F 86.3 °F 69.8 °F 66% 30.08 in 10.0 mi South 18.4 mph 23.0 mph N/A   Scattered Clouds
11:53 AM 82.9 °F 87.0 °F 70.0 °F 65% 30.04 in 10.0 mi South 15.0 mph - N/A   Scattered Clouds
12:05 PM 82.4 °F 86.3 °F 69.8 °F 66% 30.07 in 10.0 mi South 13.8 mph 20.7 mph N/A   Mostly Cloudy
12:39 PM 82.4 °F 86.3 °F 69.8 °F 66% 30.07 in 10.0 mi South 15.0 mph - N/A   Mostly Cloudy
12:53 PM 82.9 °F 87.0 °F 70.0 °F 65% 30.02 in 10.0 mi South 16.1 mph - N/A   Mostly Cloudy
1:53 PM 82.9 °F 87.0 °F 70.0 °F 65% 30.02 in 10.0 mi SSE 12.7 mph - N/A   Overcast
2:53 PM 84.9 °F 89.4 °F 70.0 °F 61% 30.00 in 10.0 mi South 12.7 mph - N/A   Scattered Clouds
3:53 PM 86.0 °F 90.7 °F 70.0 °F 59% 29.99 in 10.0 mi SSW 16.1 mph - N/A   Partly Cloudy
4:53 PM 86.0 °F 90.7 °F 70.0 °F 59% 29.98 in 10.0 mi SSW 15.0 mph 23.0 mph N/A   Scattered Clouds
5:53 PM 82.9 °F 87.0 °F 70.0 °F 65% 29.99 in 10.0 mi South 13.8 mph - N/A   Partly Cloudy
6:53 PM 82.0 °F 85.9 °F 70.0 °F 67% 29.97 in 10.0 mi South 9.2 mph - N/A   Partly Cloudy
7:53 PM 80.1 °F 83.6 °F 71.1 °F 74% 29.97 in 10.0 mi SSE 12.7 mph - N/A   Scattered Clouds
8:53 PM 80.1 °F 83.6 °F 71.1 °F 74% 29.98 in 10.0 mi SE 9.2 mph - N/A   Scattered Clouds
9:53 PM 79.0 °F - 71.1 °F 77% 29.98 in 10.0 mi SSE 10.4 mph - N/A   Overcast
10:53 PM 77.0 °F - 72.0 °F 84% 29.97 in 10.0 mi South 10.4 mph - 0.01 in   Overcast
11:53 PM 77.0 °F - 72.0 °F 84% 29.97 in 10.0 mi SSE 11.5 mph - N/A   Overcast